TimeEST,TemperatureF,Dew PointF,Humidity,Sea Level PressureIn,VisibilityMPH,Wind Direction,Wind SpeedMPH,Gust SpeedMPH,PrecipitationIn,Events,Conditions,WindDirDegrees,DateUTC
12:38 AM,30.2,26.6,86,29.93,1.2,East,10.4,17.3,N/A,Snow,Snow,80,2013-02-08 05:38:00
12:58 AM,30.2,26.6,86,29.91,0.5,East,11.5,-,N/A,Snow,Snow,80,2013-02-08 05:58:00
1:38 AM,30.2,28.4,93,29.87,0.8,East,12.7,-,N/A,Snow,Light Snow,80,2013-02-08 06:38:00
1:58 AM,30.2,28.4,93,29.86,0.5,East,15.0,-,N/A,Snow,Snow,90,2013-02-08 06:58:00
2:18 AM,30.2,28.4,93,29.84,0.5,East,15.0,19.6,N/A,Snow,Heavy Snow,80,2013-02-08 07:18:00
2:38 AM,30.2,28.4,93,29.82,0.2,ENE,13.8,19.6,N/A,Snow,Heavy Snow,70,2013-02-08 07:38:00
2:58 AM,30.2,28.4,93,29.81,0.8,East,11.5,-,N/A,Snow,Snow,90,2013-02-08 07:58:00
3:18 AM,30.2,28.4,93,29.80,0.2,East,13.8,19.6,N/A,Snow,Heavy Snow,80,2013-02-08 08:18:00
4:18 AM,32.0,30.2,93,29.80,1.0,ENE,9.2,-,N/A,Snow,Snow,60,2013-02-08 09:18:00
4:38 AM,32.0,30.2,93,29.80,1.2,NNE,6.9,-,N/A,Snow,Light Snow,30,2013-02-08 09:38:00
5:38 AM,32.0,30.2,93,29.80,1.0,North,9.2,-,N/A,Snow,Snow,10,2013-02-08 10:38:00
5:58 AM,32.0,30.2,93,29.80,1.8,North,8.1,-,N/A,Snow,Light Snow,10,2013-02-08 10:58:00
6:38 AM,30.2,30.2,100,29.81,2.0,NNE,10.4,-,N/A,Snow,Light Snow,20,2013-02-08 11:38:00
6:58 AM,30.2,28.4,93,29.82,1.5,North,9.2,17.3,N/A,Snow,Light Snow,10,2013-02-08 11:58:00
7:18 AM,30.2,28.4,93,29.83,2.0,North,10.4,-,N/A,Snow,Light Snow,10,2013-02-08 12:18:00
7:38 AM,30.2,28.4,93,29.84,1.2,North,13.8,21.9,N/A,Snow,Light Snow,10,2013-02-08 12:38:00
7:58 AM,30.2,26.6,86,29.85,2.0,North,13.8,21.9,N/A,Snow,Light Snow,360,2013-02-08 12:58:00
8:38 AM,28.4,26.6,93,29.87,3.0,North,16.1,24.2,N/A,Snow,Light Snow,10,2013-02-08 13:38:00
9:18 AM,28.4,24.8,86,29.89,2.5,North,12.7,23.0,N/A,Snow,Light Snow,360,2013-02-08 14:18:00
9:38 AM,28.4,24.8,86,29.90,1.5,North,13.8,23.0,N/A,Snow,Light Snow,360,2013-02-08 14:38:00
9:58 AM,26.6,24.8,93,29.91,0.8,North,12.7,23.0,N/A,Snow,Light Snow,350,2013-02-08 14:58:00
10:18 AM,28.4,24.8,86,29.92,1.8,North,11.5,20.7,N/A,Snow,Light Snow,360,2013-02-08 15:18:00
10:58 AM,26.6,24.8,93,29.94,0.5,North,18.4,25.3,N/A,Snow,Snow,350,2013-02-08 15:58:00
11:18 AM,28.4,24.8,86,29.95,0.8,North,15.0,24.2,N/A,Snow,Light Snow,360,2013-02-08 16:18:00
11:58 AM,28.4,24.8,86,29.97,2.0,North,13.8,26.5,N/A,Snow,Light Snow,350,2013-02-08 16:58:00
12:18 PM,30.2,24.8,80,29.98,4.0,NNW,18.4,26.5,N/A,Snow,Light Snow,340,2013-02-08 17:18:00
12:38 PM,28.4,24.8,86,29.99,2.5,North,15.0,27.6,N/A,Snow,Light Snow,350,2013-02-08 17:38:00
12:58 PM,28.4,23.0,80,30.00,2.5,NNW,18.4,28.8,N/A,Snow,Light Snow,340,2013-02-08 17:58:00
1:18 PM,28.4,23.0,80,30.01,2.5,North,16.1,27.6,N/A,Snow,Light Snow,350,2013-02-08 18:18:00
1:38 PM,28.4,23.0,80,30.02,4.0,NNW,20.7,26.5,N/A,Snow,Light Snow,330,2013-02-08 18:38:00
1:58 PM,28.4,23.0,80,30.03,10.0,NNW,17.3,23.0,N/A,,Overcast,330,2013-02-08 18:58:00
2:18 PM,28.4,21.2,74,30.04,5.0,NNW,16.1,28.8,N/A,,Haze,340,2013-02-08 19:18:00
2:38 PM,26.6,21.2,80,30.05,7.0,North,13.8,23.0,N/A,,Overcast,350,2013-02-08 19:38:00
2:58 PM,26.6,21.2,80,30.06,7.0,NNW,13.8,23.0,N/A,,Overcast,340,2013-02-08 19:58:00
3:18 PM,26.6,21.2,80,30.07,4.0,NW,15.0,21.9,N/A,,Haze,320,2013-02-08 20:18:00
3:38 PM,26.6,21.2,80,30.09,4.0,NNW,16.1,25.3,N/A,,Haze,340,2013-02-08 20:38:00
3:58 PM,26.6,21.2,80,30.10,4.0,NNW,13.8,25.3,N/A,,Haze,340,2013-02-08 20:58:00
4:18 PM,26.6,21.2,80,30.11,2.5,NNW,10.4,18.4,N/A,,Overcast,340,2013-02-08 21:18:00
4:38 PM,26.6,21.2,80,30.11,2.5,NNW,11.5,20.7,N/A,Snow,Light Snow,340,2013-02-08 21:38:00
4:58 PM,26.6,21.2,80,30.12,4.0,NNW,13.8,20.7,N/A,Snow,Light Snow,330,2013-02-08 21:58:00
5:18 PM,26.6,23.0,86,30.13,3.0,NNW,15.0,21.9,N/A,,Haze,330,2013-02-08 22:18:00
5:38 PM,26.6,21.2,80,30.14,3.0,NNW,13.8,21.9,N/A,,Haze,330,2013-02-08 22:38:00
5:58 PM,26.6,21.2,80,30.16,4.0,NNW,12.7,20.7,N/A,,Haze,330,2013-02-08 22:58:00
6:18 PM,26.6,21.2,80,30.17,4.0,NNW,10.4,19.6,N/A,Snow,Light Snow,330,2013-02-08 23:18:00
6:38 PM,26.6,21.2,80,30.19,4.0,NNW,10.4,17.3,N/A,Snow,Light Snow,340,2013-02-08 23:38:00
6:58 PM,26.6,21.2,80,30.19,5.0,NNW,9.2,18.4,N/A,Snow,Light Snow,330,2013-02-08 23:58:00
7:18 PM,26.6,21.2,80,30.20,7.0,NNW,10.4,23.0,N/A,Snow,Light Snow,330,2013-02-09 00:18:00
7:38 PM,26.6,21.2,80,30.21,7.0,NNW,12.7,-,N/A,Snow,Light Snow,340,2013-02-09 00:38:00
7:58 PM,26.6,21.2,80,30.22,10.0,NNW,13.8,23.0,N/A,,Overcast,330,2013-02-09 00:58:00
8:18 PM,26.6,19.4,74,30.22,10.0,NNW,13.8,21.9,N/A,,Overcast,340,2013-02-09 01:18:00
8:38 PM,26.6,19.4,74,30.22,10.0,NNW,13.8,19.6,N/A,,Overcast,340,2013-02-09 01:38:00
8:58 PM,26.6,21.2,80,30.23,10.0,NNW,10.4,18.4,N/A,,Overcast,330,2013-02-09 01:58:00
9:18 PM,26.6,21.2,80,30.23,10.0,NNW,9.2,-,N/A,,Overcast,340,2013-02-09 02:18:00
9:38 PM,26.6,21.2,80,30.24,10.0,NNW,10.4,16.1,N/A,,Overcast,330,2013-02-09 02:38:00
9:58 PM,26.6,21.2,80,30.25,10.0,NNW,9.2,16.1,N/A,,Overcast,330,2013-02-09 02:58:00
10:18 PM,26.6,19.4,74,30.26,10.0,NNW,8.1,-,N/A,,Overcast,340,2013-02-09 03:18:00
10:38 PM,24.8,21.2,86,30.27,4.0,NW,12.7,18.4,N/A,Snow,Light Snow,310,2013-02-09 03:38:00
10:58 PM,24.8,21.2,86,30.27,4.0,NW,10.4,-,N/A,Snow,Light Snow,320,2013-02-09 03:58:00
11:18 PM,24.8,21.2,86,30.28,3.0,NW,10.4,17.3,N/A,Snow,Light Snow,320,2013-02-09 04:18:00
11:38 PM,24.8,21.2,86,30.28,5.0,NW,9.2,-,N/A,Snow,Light Snow,320,2013-02-09 04:38:00
11:58 PM,24.8,19.4,80,30.29,4.0,NNW,6.9,-,N/A,Snow,Light Snow,330,2013-02-09 04:58:00